Hourly Data Report for October 24, 2015

All times are specified in Local Standard Time (LST). Add 1 hour to adjust for Daylight Saving Time where and when it is observed.

POND INLET A
NUNAVUT

72°41'22.000" N
77°58'08.000" W
61.60 m
2403206
71095
YIO

Download Data

Hourly Data (October 2015)
Hourly Data Report for October 24, 2015
Temp Definition
°C
Dew Point Temp Definition
°C
Rel Hum Definition
%
Wind Dir Definition
10's deg

Wind Spd Definition
km/h
Visibility Definition
km
Stn Press Definition
kPa
Hmdx Definition


Wind Chill Definition


Weather Definition


TIME
00:00 Legend Double Dagger -11.3 -16.3 67 8 18 16.1 99.08   -19 LegendNANA
01:00 Legend Double Dagger -11.2 -16.5 66 7 26 16.1 99.06   -20 LegendNANA
02:00 Legend Double Dagger -11.6 -18.1 59 8 21 16.1 99.04   -20 LegendNANA
03:00 Legend Double Dagger -12.6 -18.9 60 8 17 16.1 99.01   -20 LegendNANA
04:00 Legend Double Dagger -12.6 -18.7 61 9 13 16.1 98.99   -19 LegendNANA
05:00 Legend Double Dagger -14.7 -20.7 61 12 9 16.1 98.96   -20 LegendNANA
06:00 Legend Double Dagger -13.3 -18.8 64 6 8 16.1 98.93   -18 LegendNANA
07:00 Legend Double Dagger -13.1 -19.2 61 6 22 16.1 98.88   -22 LegendNANA
08:00 Legend Double Dagger -12.8 -18.5 63 8 24 16.1 98.82   -22 LegendNANA
09:00 Legend Double Dagger -13.9 -19.4 64 9 21 16.1 98.82   -23 LegendNANA
10:00 Legend Double Dagger -13.3 -19.1 62 9 22 16.1 98.78   -22 LegendNANA
11:00 Legend Double Dagger -13.6 -19.4 62 9 18 16.1 98.72   -22 LegendNANA
12:00 Legend Double Dagger -14.7 -20.1 64 9 13 16.1 98.68   -22 LegendNANA
13:00 Legend Double Dagger -16.4 -22.0 63 11 13 16.1 98.62   -24 LegendNANA
14:00 Legend Double Dagger -14.5 -19.6 66 12 18 16.1 98.57   -23 LegendNANA
15:00 Legend Double Dagger -13.8 -19.6 62 11 18 16.1 98.53   -22 LegendNANA
16:00 Legend Double Dagger -14.5 -20.5 61 11 18 16.1 98.49   -23 LegendNANA
17:00 Legend Double Dagger -14.5 -20.5 61 11 13 16.1 98.48   -22 LegendNANA
18:00 Legend Double Dagger -14.5 -20.2 62 12 13 16.1 98.46   -22 LegendNANA
19:00 Legend Double Dagger -13.8 -19.7 62 12 15 16.1 98.42   -21 LegendNANA
20:00 Legend Double Dagger -13.6 -19.8 60 12 13 16.1 98.36   -21 LegendNANA
21:00 Legend Double Dagger -13.3 -19.4 61 12 17 16.1 98.31   -21 LegendNANA
22:00 Legend Double Dagger -12.7 -18.4 63 10 17 16.1 98.27   -21 LegendNANA
23:00 Legend Double Dagger -12.8 -18.5 63 12 17 16.1 98.22   -21 LegendNANA

Notes on Data Quality.

Legend

  • E = Estimated
  • M = Missing
  • NA = Not Available
  • ‡ = Partner data that is not subject to review by the National Climate Archives
Date modified: